CW0453 Weather Reports


Display with metric or nautical units.
time (UTC)temp
F
wind
direction
speed
MPH
gust
MPH
rain 1hr
in
rain 24hr
in
rain mn
in
humidity
%
barometer
mb
20170920235013 74 30 4.0 12.0 0.00 0.00 0.00 54 1011.3
20170920234515 74 47 6.0 11.0 0.00 0.00 0.00 54 1011.3
20170920234018 74 56 2.0 9.0 0.00 0.00 0.00 55 1011.3
20170920233520 75 51 2.0 7.0 0.00 0.00 0.00 53 1011.3
20170920233022 75 38 4.0 7.0 0.00 0.00 0.00 53 1011.3
20170920232523 75 59 4.0 9.0 0.00 0.00 0.00 54 1011.3
20170920232026 75 42 5.0 9.0 0.00 0.00 0.00 55 1011.2
20170920231528 75 33 4.0 9.0 0.00 0.00 0.00 52 1011.1
20170920231029 76 50 5.0 8.0 0.00 0.00 0.00 52 1011.1
20170920230512 76 51 3.0 6.0 0.00 0.00 0.00 52 1011.0
20170920230015 76 42 3.0 11.0 0.00 0.00 0.00 53 1011.0
20170920225517 76 15 6.0 12.0 0.00 0.00 0.00 51 1010.9
20170920225018 76 34 6.0 13.0 0.00 0.00 0.00 51 1010.8
20170920224521 76 360 5.0 12.0 0.00 0.00 0.00 50 1010.8
20170920224022 76 14 6.0 13.0 0.00 0.00 0.00 51 1010.7
20170920223524 76 355 5.0 13.0 0.00 0.00 0.00 51 1010.8
20170920223028 77 16 5.0 13.0 0.00 0.00 0.00 51 1010.7
20170920222512 77 46 8.0 13.0 0.00 0.00 0.00 52 1010.7
20170920222015 77 30 8.0 14.0 0.00 0.00 0.00 51 1010.8
20170920221517 77 44 6.0 14.0 0.00 0.00 0.00 53 1010.7
20170920221019 77 5 6.0 12.0 0.00 0.00 0.00 50 1010.7
20170920220523 77 24 8.0 12.0 0.00 0.00 0.00 52 1010.7
20170920220024 78 21 6.0 12.0 0.00 0.00 0.00 53 1010.7
20170920215525 78 24 7.0 12.0 0.00 0.00 0.00 50 1010.7
20170920215028 78 16 8.0 12.0 0.00 0.00 0.00 48 1010.8
20170920214526 77 5 7.0 13.0 0.00 0.00 0.00 49 1010.6
20170920214028 78 341 5.0 14.0 0.00 0.00 0.00 51 1010.7
20170920213023 78 25 7.0 12.0 0.00 0.00 0.00 50 1010.6
20170920212524 78 355 7.0 12.0 0.00 0.00 0.00 49 1010.5
20170920212024 78 25 8.0 16.0 0.00 0.00 0.00 51 1010.6
20170920211527 78 26 8.0 16.0 0.00 0.00 0.00 50 1010.5
20170920211028 78 355 8.0 15.0 0.00 0.00 0.00 50 1010.5
20170920210511 78 355 8.0 15.0 0.00 0.00 0.00 49 1010.5
20170920210014 78 336 7.0 15.0 0.00 0.00 0.00 52 1010.5
20170920205519 78 346 9.0 15.0 0.00 0.00 0.00 50 1010.5
20170920205022 78 355 6.0 13.0 0.00 0.00 0.00 51 1010.6
20170920204524 78 325 10.0 13.0 0.00 0.00 0.00 50 1010.5
20170920204025 78 13 7.0 14.0 0.00 0.00 0.00 51 1010.4
20170920203529 78 333 8.0 15.0 0.00 0.00 0.00 53 1010.4
20170920203011 78 349 7.0 15.0 0.00 0.00 0.00 54 1010.5
20170920202517 78 300 8.0 14.0 0.00 0.00 0.00 53 1010.5
20170920202020 78 338 10.0 15.0 0.00 0.00 0.00 49 1010.6
20170920201525 78 5 9.0 15.0 0.00 0.00 0.00 51 1010.5
20170920201029 78 322 7.0 17.0 0.00 0.00 0.00 56 1010.5
20170920200512 77 355 9.0 17.0 0.00 0.00 0.00 54 1010.5
20170920200011 77 355 10.0 17.0 0.00 0.00 0.00 54 1010.5
20170920195514 78 332 9.0 15.0 0.00 0.00 0.00 51 1010.4
20170920195020 77 343 11.0 15.0 0.00 0.00 0.00 53 1010.4
20170920194522 77 360 10.0 15.0 0.00 0.00 0.00 52 1010.4
20170920194026 77 311 9.0 16.0 0.00 0.00 0.00 52 1010.4
20170920193527 77 329 10.0 14.0 0.00 0.00 0.00 52 1010.2
20170920193029 77 338 7.0 19.0 0.00 0.00 0.00 53 1010.3
20170920192510 77 9 12.0 19.0 0.00 0.00 0.00 53 1010.4
20170920192011 77 329 5.0 16.0 0.00 0.00 0.00 58 1010.3
20170920191517 77 5 9.0 16.0 0.00 0.00 0.00 53 1010.4
20170920191020 77 327 9.0 15.0 0.00 0.00 0.00 58 1010.5
20170920190522 77 334 8.0 14.0 0.00 0.00 0.00 57 1010.5
20170920190027 77 340 10.0 14.0 0.00 0.00 0.00 56 1010.5
20170920185512 77 355 9.0 14.0 0.00 0.00 0.00 57 1010.5
20170920185011 76 316 11.0 14.0 0.00 0.00 0.00 56 1010.5
20170920184513 76 304 6.0 14.0 0.00 0.00 0.00 56 1010.5
20170920184017 76 355 10.0 14.0 0.00 0.00 0.00 56 1010.6
20170920183519 76 325 7.0 12.0 0.00 0.00 0.00 57 1010.5
20170920183020 76 328 9.0 14.0 0.00 0.00 0.00 54 1010.5
20170920182523 76 25 9.0 16.0 0.00 0.00 0.00 57 1010.4
20170920182025 76 355 9.0 16.0 0.00 0.00 0.00 57 1010.5
20170920181528 76 336 9.0 15.0 0.00 0.00 0.00 56 1010.5
20170920181011 76 320 9.0 13.0 0.00 0.00 0.00 57 1010.3
20170920180515 76 5 8.0 13.0 0.00 0.00 0.00 58 1010.4
20170920180018 76 5 7.0 14.0 0.00 0.00 0.00 61 1010.4
20170920175519 75 309 6.0 16.0 0.00 0.00 0.00 57 1010.4
20170920175022 75 16 11.0 16.0 0.00 0.00 0.00 57 1010.4
20170920174525 75 342 10.0 17.0 0.00 0.00 0.00 58 1010.4
20170920174028 75 360 10.0 17.0 0.00 0.00 0.00 57 1010.4
20170920173511 74 360 11.0 17.0 0.00 0.00 0.00 61 1010.4
20170920173012 75 332 10.0 16.0 0.00 0.00 0.00 61 1010.4
20170920172515 75 315 12.0 16.0 0.00 0.00 0.00 61 1010.4
20170920172017 74 17 8.0 15.0 0.00 0.00 0.00 64 1010.4
20170920171521 74 13 8.0 15.0 0.00 0.00 0.00 59 1010.2
20170920171024 74 340 9.0 18.0 0.00 0.00 0.00 62 1010.2
20170920170526 74 11 12.0 18.0 0.00 0.00 0.00 61 1010.2
20170920170028 74 336 10.0 15.0 0.00 0.00 0.00 59 1010.1
20170920165511 74 336 11.0 18.0 0.00 0.00 0.00 60 1010.1
20170920165014 73 325 10.0 18.0 0.00 0.00 0.00 62 1010.0
20170920164515 73 328 10.0 17.0 0.00 0.00 0.00 61 1010.0
20170920164018 73 344 9.0 19.0 0.00 0.00 0.00 62 1010.1
20170920163520 73 348 11.0 19.0 0.00 0.00 0.00 64 1010.0
20170920163022 73 342 12.0 16.0 0.00 0.00 0.00 64 1010.0
20170920162510 72 338 9.0 19.0 0.00 0.00 0.00 64 1010.0
20170920162013 72 338 10.0 19.0 0.00 0.00 0.00 65 1009.9
20170920161516 72 338 11.0 18.0 0.00 0.00 0.00 64 1010.0
20170920161017 71 340 13.0 20.0 0.00 0.00 0.00 64 1009.9
20170920160518 71 343 10.0 20.0 0.00 0.00 0.00 65 1009.8
20170920160020 71 344 14.0 19.0 0.00 0.00 0.00 64 1009.8
20170920155523 71 355 13.0 18.0 0.00 0.00 0.00 64 1009.8
20170920155027 71 5 12.0 17.0 0.00 0.00 0.00 65 1009.7
20170920154510 71 329 11.0 18.0 0.00 0.00 0.00 65 1009.7
20170920154013 71 328 11.0 18.0 0.00 0.00 0.00 66 1009.7
20170920153516 70 5 11.0 17.0 0.00 0.00 0.00 64 1009.6
20170920153021 70 341 9.0 17.0 0.00 0.00 0.00 66 1009.5
20170920152522 70 342 12.0 20.0 0.00 0.00 0.00 63 1009.5
20170920152028 70 344 14.0 20.0 0.00 0.00 0.00 65 1009.5
20170920151529 70 341 13.0 20.0 0.00 0.00 0.00 66 1009.4
20170920151013 69 355 10.0 20.0 0.00 0.00 0.00 66 1009.4
20170920150516 69 317 11.0 23.0 0.00 0.00 0.00 65 1009.2
20170920150020 69 31 15.0 23.0 0.00 0.00 0.00 65 1009.1
20170920145522 69 346 11.0 22.0 0.00 0.00 0.00 65 1009.1
20170920145023 69 331 11.0 19.0 0.00 0.00 0.00 66 1009.1
20170920144525 69 334 11.0 19.0 0.00 0.00 0.00 66 1009.0
20170920144010 68 355 10.0 17.0 0.00 0.00 0.00 69 1008.9
20170920143512 68 341 10.0 16.0 0.00 0.00 0.00 66 1009.0
20170920143014 68 19 10.0 18.0 0.00 0.00 0.00 67 1008.8
20170920142516 68 332 10.0 18.0 0.00 0.00 0.00 68 1008.8
20170920142019 67 350 12.0 18.0 0.00 0.00 0.00 69 1008.7
20170920141520 67 333 8.0 11.0 0.00 0.00 0.00 74 1008.6
20170920141018 66 5 7.0 12.0 0.00 0.00 0.00 73 1008.6
20170920140524 66 342 8.0 12.0 0.00 0.00 0.00 74 1008.6
20170920140026 66 346 8.0 12.0 0.00 0.00 0.00 76 1008.6
20170920135526 65 321 8.0 14.0 0.00 0.00 0.00 77 1008.4
20170920135028 65 323 7.0 14.0 0.00 0.00 0.00 77 1008.3
20170920134510 64 331 6.0 10.0 0.00 0.00 0.00 78 1008.3
20170920134013 64 319 7.0 10.0 0.00 0.00 0.00 78 1008.1
20170920133515 64 335 5.0 11.0 0.00 0.00 0.00 79 1008.1
20170920133016 64 331 6.0 11.0 0.00 0.00 0.00 79 1008.0
20170920132519 63 309 5.0 10.0 0.00 0.00 0.00 79 1007.8
20170920132021 63 350 7.0 13.0 0.00 0.00 0.00 79 1007.7
20170920131519 63 360 8.0 15.0 0.00 0.00 0.00 79 1007.6
20170920131023 63 340 10.0 16.0 0.00 0.00 0.00 79 1007.7
20170920130527 63 355 10.0 16.0 0.00 0.00 0.00 79 1007.6
20170920130028 64 322 9.0 14.0 0.00 0.00 0.00 80 1007.6
20170920125511 64 9 8.0 14.0 0.00 0.00 0.00 80 1007.3
20170920125014 64 319 6.0 12.0 0.00 0.00 0.00 81 1007.3
20170920124517 64 316 7.0 11.0 0.00 0.00 0.00 80 1007.1
20170920124020 64 348 6.0 12.0 0.00 0.00 0.00 80 1007.0
20170920123522 64 344 6.0 12.0 0.00 0.00 0.00 81 1007.0
20170920123026 64 321 7.0 11.0 0.00 0.00 0.00 83 1007.0
20170920122526 64 348 5.0 9.0 0.00 0.00 0.00 83 1006.6
20170920122028 64 351 5.0 8.0 0.00 0.00 0.00 83 1006.6
20170920121512 64 344 5.0 9.0 0.00 0.00 0.00 83 1006.5
20170920121015 65 14 6.0 11.0 0.00 0.00 0.00 83 1006.3
20170920120519 65 5 7.0 13.0 0.00 0.00 0.00 83 1006.4
20170920120022 65 5 7.0 13.0 0.00 0.00 0.00 83 1006.4
20170920115022 65 330 7.0 14.0 0.00 0.00 0.00 83 1006.4
20170920114526 66 347 5.0 10.0 0.00 0.00 0.00 83 1006.2
20170920114028 66 329 6.0 13.0 0.00 0.00 0.00 82 1006.1
20170920113510 66 347 6.0 13.0 0.00 0.00 0.00 82 1005.9
20170920113012 67 325 10.0 12.0 0.00 0.00 0.00 82 1005.8
20170920112514 67 329 8.0 13.0 0.00 0.00 0.00 82 1005.7
20170920112014 67 340 10.0 12.0 0.00 0.00 0.00 81 1005.6
20170920111518 67 338 8.0 13.0 0.00 0.00 0.00 81 1005.6
20170920111021 67 355 8.0 14.0 0.00 0.00 0.00 80 1005.5
20170920110543 68 333 10.0 14.0 0.00 0.00 0.00 80 1005.4
20170920110013 68 340 9.0 14.0 0.00 0.00 0.00 79 1005.3
20170920105518 68 345 10.0 14.0 0.00 0.00 0.00 78 1005.3
20170920105022 68 335 8.0 13.0 0.00 0.00 0.00 78 1005.3
20170920104524 69 355 9.0 13.0 0.00 0.00 0.00 77 1005.1
20170920104027 69 343 9.0 14.0 0.00 0.00 0.00 77 1005.1
20170920103528 69 350 8.0 15.0 0.00 0.00 0.00 77 1005.0
20170920103010 70 343 8.0 15.0 0.00 0.00 0.00 76 1004.9
20170920102511 71 355 9.0 14.0 0.00 0.00 0.00 76 1004.9
20170920102014 72 19 10.0 14.0 0.00 0.00 0.00 77 1004.7
20170920101516 73 344 9.0 14.0 0.00 0.00 0.00 82 1004.6
20170920101019 73 349 8.0 12.0 0.00 0.00 0.00 86 1004.5
20170920100523 74 319 6.0 12.0 0.00 0.00 0.00 88 1004.5
20170920100026 74 315 4.0 11.0 0.00 0.00 0.00 91 1004.4
20170920095510 73 335 7.0 10.0 0.00 0.00 0.00 92 1004.3
20170920095013 73 164 2.0 5.0 0.00 0.00 0.00 91 1004.0
20170920094524 73 164 3.0 5.0 0.00 0.00 0.00 91 1003.9
20170920094028 73 164 3.0 5.0 0.00 0.00 0.00 91 1004.0
20170920093510 74 164 3.0 6.0 0.00 0.00 0.00 90 1003.8
20170920093013 74 164 4.0 6.0 0.00 0.00 0.00 90 1003.9
20170920092515 74 163 4.0 6.0 0.00 0.00 0.00 90 1003.9
20170920092018 74 159 4.0 7.0 0.00 0.00 0.00 89 1003.8
20170920091524 74 161 4.0 7.0 0.00 0.00 0.00 89 1003.7
20170920091026 74 153 3.0 6.0 0.00 0.00 0.00 89 1003.7
20170920090510 75 153 4.0 6.0 0.00 0.00 0.00 88 1003.7
20170920090023 75 153 3.0 6.0 0.00 0.00 0.00 88 1003.6
20170920085525 75 158 3.0 6.0 0.00 0.00 0.00 87 1003.8
20170920085027 76 175 3.0 6.0 0.00 0.00 0.00 87 1003.8
20170920084512 76 175 2.0 6.0 0.00 0.00 0.00 87 1003.8
20170920084014 76 182 3.0 8.0 0.00 0.00 0.00 86 1003.7
20170920083516 76 209 4.0 8.0 0.00 0.00 0.00 86 1003.9
20170920083016 76 196 5.0 9.0 0.00 0.00 0.00 86 1003.8
20170920082521 76 213 4.0 9.0 0.00 0.00 0.00 85 1003.7
20170920082020 76 191 4.0 11.0 0.00 0.00 0.00 85 1003.6
20170920081523 76 192 7.0 12.0 0.00 0.00 0.00 85 1003.6
20170920081022 77 210 8.0 13.0 0.00 0.00 0.00 85 1003.6
20170920080525 77 182 7.0 13.0 0.00 0.00 0.00 84 1003.6
20170920080029 77 134 6.0 15.0 0.00 0.00 0.00 84 1003.5
20170920075511 77 174 9.0 15.0 0.00 0.00 0.00 84 1003.4
20170920075014 77 188 8.0 14.0 0.00 0.00 0.00 84 1003.6
20170920074517 77 208 8.0 14.0 0.00 0.00 0.00 84 1003.7
20170920074020 77 188 6.0 13.0 0.00 0.00 0.00 83 1003.7
20170920073523 77 194 6.0 13.0 0.00 0.00 0.00 83 1003.8
20170920073024 77 229 7.0 18.0 0.00 0.00 0.00 83 1003.7
20170920072525 78 216 9.0 18.0 0.00 0.00 0.00 83 1003.1
20170920072010 78 182 11.0 17.0 0.00 0.00 0.00 83 1003.0
20170920071512 78 209 11.0 26.0 0.00 0.00 0.00 83 1002.6
20170920071016 78 184 12.0 29.0 0.00 0.00 0.00 83 1002.4
20170920070520 78 165 13.0 22.0 0.00 0.00 0.00 83 1002.2
20170920070024 78 175 9.0 22.0 0.00 0.00 0.00 83 1002.3
20170920065526 78 175 11.0 21.0 0.00 0.00 0.00 83 1002.2
20170920065027 78 138 14.0 24.0 0.00 0.00 0.00 83 1002.2
20170920064528 78 157 14.0 24.0 0.00 0.00 0.00 83 1002.2
20170920064029 77 172 16.0 26.0 0.00 0.00 0.00 83 1002.1
20170920063509 77 169 14.0 23.0 0.00 0.00 0.00 83 1002.1
20170920063011 77 138 13.0 22.0 0.00 0.00 0.00 83 1002.2
20170920062515 77 138 15.0 22.0 0.00 0.00 0.00 83 1002.1
20170920062016 77 156 14.0 22.0 0.00 0.00 0.00 83 1002.0
20170920061519 77 163 13.0 23.0 0.00 0.00 0.00 84 1001.9
20170920061023 77 161 13.0 21.0 0.00 0.00 0.00 84 1001.9
20170920060525 77 176 10.0 24.0 0.00 0.00 0.00 84 1002.0
20170920060013 77 158 13.0 24.0 0.00 0.00 0.00 83 1001.9
20170920055516 77 178 11.0 25.0 0.00 0.00 0.00 83 1001.9
20170920055017 77 186 11.0 20.0 0.00 0.00 0.00 83 1002.0
20170920054518 77 147 12.0 22.0 0.00 0.00 0.00 83 1002.1
20170920054020 77 146 13.0 22.0 0.00 0.00 0.00 83 1002.0
20170920053522 77 135 12.0 18.0 0.00 0.00 0.00 83 1002.0
20170920053022 77 184 12.0 23.0 0.00 0.00 0.00 83 1002.0
20170920052525 77 137 13.0 23.0 0.00 0.00 0.00 83 1002.0
20170920052027 77 163 14.0 24.0 0.00 0.00 0.00 82 1002.1
20170920051511 77 166 11.0 21.0 0.00 0.00 0.00 82 1002.1
20170920051013 77 178 11.0 26.0 0.00 0.00 0.00 82 1002.1
20170920050516 77 111 14.0 26.0 0.00 0.00 0.00 81 1002.2
20170920050018 77 143 13.0 21.0 0.00 0.00 0.00 81 1002.3
20170920045522 77 161 13.0 21.0 0.00 0.00 0.00 80 1002.3
20170920045025 77 184 15.0 21.0 0.00 0.00 0.00 80 1002.3
20170920044526 78 180 15.0 24.0 0.00 0.00 0.00 80 1002.3
20170920044028 78 151 14.0 24.0 0.00 0.00 0.00 80 1002.3
20170920043511 78 178 14.0 22.0 0.00 0.00 0.00 79 1002.4
20170920043014 78 131 13.0 22.0 0.00 0.00 0.00 79 1002.5
20170920042516 78 153 10.0 28.0 0.00 0.00 0.00 79 1002.4
20170920042020 78 161 13.0 28.0 0.00 0.00 0.00 79 1002.4
20170920041527 78 140 11.0 24.0 0.00 0.00 0.00 78 1002.5
20170920041029 78 126 14.0 24.0 0.00 0.00 0.00 78 1002.5
20170920040513 78 161 13.0 21.0 0.00 0.00 0.00 78 1002.5
20170920040019 78 127 12.0 21.0 0.00 0.00 0.00 77 1002.4
20170920035516 78 173 12.0 27.0 0.00 0.00 0.00 77 1002.5
20170920035020 78 140 14.0 27.0 0.00 0.00 0.00 76 1002.3
20170920034521 78 149 12.0 24.0 0.00 0.00 0.00 76 1002.5
20170920034023 79 158 13.0 24.0 0.00 0.00 0.00 76 1002.4
20170920033525 79 122 14.0 28.0 0.00 0.00 0.00 76 1002.3
20170920033026 79 144 15.0 28.0 0.00 0.00 0.00 75 1002.4
20170920032511 79 135 14.0 24.0 0.00 0.00 0.00 75 1002.3
20170920032014 79 103 11.0 22.0 0.00 0.00 0.00 75 1002.3
20170920031519 79 131 13.0 26.0 0.00 0.00 0.00 75 1002.3
20170920031022 79 148 14.0 26.0 0.00 0.00 0.00 74 1002.3
20170920030527 79 121 15.0 25.0 0.00 0.00 0.00 75 1002.2
20170920030010 79 142 13.0 24.0 0.00 0.00 0.00 74 1002.3
20170920025514 79 113 12.0 24.0 0.00 0.00 0.00 74 1002.2
20170920025017 79 128 11.0 26.0 0.00 0.00 0.00 74 1002.3
20170920024520 79 121 12.0 26.0 0.00 0.00 0.00 74 1002.3
20170920024023 79 163 13.0 23.0 0.00 0.00 0.00 74 1002.2
20170920023526 79 147 16.0 25.0 0.00 0.00 0.00 74 1002.2
20170920023029 79 136 13.0 25.0 0.00 0.00 0.00 74 1002.2
20170920022512 79 142 13.0 24.0 0.00 0.00 0.00 74 1002.2
20170920022014 79 130 12.0 19.0 0.00 0.00 0.00 74 1002.0
20170920021518 79 123 12.0 25.0 0.00 0.00 0.00 74 1002.0
20170920021020 80 128 13.0 25.0 0.00 0.00 0.00 74 1001.9
20170920020521 80 144 13.0 24.0 0.00 0.00 0.00 74 1002.0
20170920020025 80 138 17.0 24.0 0.00 0.00 0.00 74 1001.8
20170920015527 80 167 14.0 24.0 0.00 0.00 0.00 74 1001.8
20170920015010 80 144 13.0 23.0 0.00 0.00 0.00 74 1001.8
20170920014513 80 112 13.0 23.0 0.00 0.00 0.00 74 1001.8
20170920014016 80 130 13.0 23.0 0.00 0.00 0.00 74 1001.6
20170920013520 80 130 13.0 23.0 0.00 0.00 0.00 74 1001.7
20170920013022 80 92 12.0 22.0 0.00 0.00 0.00 74 1001.6
20170920012526 80 148 13.0 21.0 0.00 0.00 0.00 74 1001.5
20170920012011 80 115 14.0 22.0 0.00 0.00 0.00 73 1001.4
20170920011516 81 160 11.0 22.0 0.00 0.00 0.00 73 1001.5
20170920011019 81 163 13.0 21.0 0.00 0.00 0.00 73 1001.5
20170920010524 81 139 13.0 24.0 0.00 0.00 0.00 73 1001.6
20170920010026 81 124 12.0 24.0 0.00 0.00 0.00 72 1001.5
20170920005529 81 103 13.0 22.0 0.00 0.00 0.00 72 1001.5
20170920005029 81 152 11.0 22.0 0.00 0.00 0.00 72 1001.6
20170920004513 81 131 12.0 20.0 0.00 0.00 0.00 72 1001.5
20170920004016 81 144 10.0 21.0 0.00 0.00 0.00 72 1001.4
20170920003518 82 164 11.0 21.0 0.00 0.00 0.00 72 1001.3
20170920003025 82 147 13.0 21.0 0.00 0.00 0.00 71 1001.3
20170920002527 82 121 13.0 20.0 0.00 0.00 0.00 71 1001.3
20170920002010 82 153 14.0 22.0 0.00 0.00 0.00 71 1001.3
20170920001513 82 141 11.0 20.0 0.00 0.00 0.00 71 1001.3
20170920001014 82 164 12.0 22.0 0.00 0.00 0.00 70 1001.4
20170920000516 83 142 11.0 22.0 0.00 0.00 0.00 70 1001.3
20170920000019 83 175 13.0 21.0 0.00 0.00 0.00 70 1001.3
20170919235521 83 180 13.0 21.0 0.00 0.00 0.00 69 1001.3